[[{"header":{"parameterUnit":"m.s-1","parameterCategory":2,"la1":30.2992,"la2":30.254,"lo1":-89.0895,"lo2":-89.0443,"dy":0.0025,"dx":0.0025,"nx":19,"ny":19,"refTime":"2026-04-08T03:00:00:Z","depth":"0","parameterNumber":2,"parameterNumberName":"U-component_of_CURRENTS"},"data":[0,0,0,-0.3046,-0.3048,-0.3099,-0.3099,-0.3104,-0.3104,0,0,0,0,0,0,0,0,0,0,0,-0.3013,-0.3014,-0.3046,-0.3048,-0.3099,-0.3099,-0.3104,-0.3104,0,0,0,0,0,0,0,0,0,0,0,-0.3013,-0.3013,-0.3014,-0.3048,-0.3099,-0.3099,-0.3104,-0.3077,0,0,0,0,0,0,0,0,0,0,-0.3034,-0.3005,-0.3013,-0.3014,-0.3048,-0.3099,-0.3099,-0.3077,-0.3079,-0.3069,0,-0.3077,0,-0.3103,-0.3105,-0.3105,0,0,0,-0.3034,-0.3003,-0.3034,-0.3014,-0.3049,-0.3099,-0.3072,-0.3078,-0.3081,-0.3072,-0.3078,-0.3079,-0.3103,-0.3105,-0.3105,-0.3176,-0.3177,0,0,-0.3031,-0.3005,-0.3033,-0.3036,-0.3063,-0.307,-0.3074,-0.3081,-0.3072,-0.3078,-0.308,-0.3103,-0.3105,-0.3105,-0.3175,-0.3176,0,0,0,-0.3032,-0.3002,-0.3034,-0.3035,-0.3056,-0.3072,-0.3076,-0.3071,-0.3086,-0.308,-0.3103,-0.3105,-0.3105,-0.3174,-0.3176,-0.3225,0,0,0,-0.303,-0.3005,-0.3033,-0.3015,-0.3056,-0.307,-0.3066,-0.3085,-0.3088,-0.3103,-0.3105,-0.3105,-0.3174,-0.3175,-0.3222,-0.3239,0,0,0,-0.3011,-0.3003,-0.3013,-0.3014,-0.3046,-0.3071,-0.3086,-0.3086,-0.3102,-0.3105,-0.3105,-0.3173,-0.3175,-0.3219,-0.3235,-0.3242,0,0,0,-0.2976,-0.2999,-0.3012,-0.3052,-0.3046,-0.3128,-0.3086,-0.3123,-0.3131,-0.3105,-0.3174,-0.3175,-0.3218,-0.3232,-0.324,-0.3136,-0.3138,0,0,-0.2993,-0.3,-0.3031,-0.3046,-0.3126,-0.3119,-0.3194,-0.3174,-0.3153,-0.3162,-0.3165,-0.3223,-0.3235,-0.3241,-0.3239,-0.3237,0,0,0,-0.3031,-0.3045,-0.3075,-0.3121,-0.3181,-0.3225,-0.3227,-0.3231,-0.3237,-0.317,-0.3246,-0.3252,-0.3254,-0.3187,-0.3187,-0.3144,-0.3184,-0.3183,-0.3183,-0.2979,-0.3045,-0.3097,-0.3177,-0.3234,-0.3296,-0.3327,-0.3331,-0.33,-0.3316,-0.3309,-0.3372,-0.3304,-0.3302,-0.3261,-0.333,-0.3331,-0.3331,-0.3331,-0.2987,-0.3007,-0.3105,-0.3175,-0.3255,-0.3315,-0.3403,-0.3398,-0.3423,-0.339,-0.3389,-0.3265,-0.3304,-0.326,-0.3335,-0.3334,-0.3333,-0.3333,-0.3333,-0.2922,-0.294,-0.3003,-0.3104,-0.3201,-0.3305,-0.3378,-0.3439,-0.3454,-0.3473,-0.3362,-0.3359,-0.3302,-0.3455,-0.3455,-0.3455,-0.3455,-0.3455,-0.3455,-0.2801,-0.2876,-0.2899,-0.303,-0.3081,-0.3193,-0.3351,-0.3396,-0.3422,-0.3409,-0.3407,-0.332,-0.3409,-0.3382,-0.3457,-0.3457,-0.3457,-0.3457,-0.3456,-0.2677,-0.2717,-0.2748,-0.2794,-0.2933,-0.2973,-0.3187,-0.3276,-0.3341,-0.3327,-0.3274,-0.3367,-0.3333,-0.3331,-0.3303,-0.3353,-0.3353,-0.3353,-0.3353,-0.2552,-0.2592,-0.2583,-0.2625,-0.2716,-0.2858,-0.2869,-0.3004,-0.3124,-0.3125,-0.3212,-0.3161,-0.3167,-0.3121,-0.3124,-0.3092,-0.3088,-0.3087,-0.3087,-0.2432,-0.2469,-0.2403,-0.2492,-0.2597,-0.2681,-0.2636,-0.2752,-0.2956,-0.3078,-0.318,-0.3191,-0.312,-0.3133,-0.3062,-0.3069,-0.3016,0,0]},{"header":{"parameterUnit":"m.s-1","parameterCategory":2,"la1":30.2992,"la2":30.254,"lo1":-89.0895,"lo2":-89.0443,"dy":0.0025,"dx":0.0025,"nx":19,"ny":19,"refTime":"2026-04-08T03:00:00:Z","depth":"0","parameterNumber":3,"parameterNumberName":"V-component_of_CURRENTS"},"data":[0,0,0,-0.0403,-0.0401,-0.0264,-0.0263,-0.0051,-0.0049,0,0,0,0,0,0,0,0,0,0,0,-0.0453,-0.0453,-0.0403,-0.04,-0.0264,-0.0263,-0.0051,-0.0049,0,0,0,0,0,0,0,0,0,0,0,-0.0454,-0.0453,-0.0453,-0.04,-0.0264,-0.0263,-0.0052,-0.0158,0,0,0,0,0,0,0,0,0,0,-0.0293,-0.0362,-0.0453,-0.0453,-0.0399,-0.0264,-0.0263,-0.0164,-0.0152,-0.0109,0,-0.0106,0,-0.008,-0.0036,-0.0036,0,0,0,-0.0377,-0.0372,-0.0331,-0.0453,-0.0398,-0.0265,-0.0319,-0.0157,-0.0144,-0.0094,-0.0103,-0.0095,-0.0077,-0.0035,-0.0034,0.0093,0.0093,0,0,-0.0384,-0.0424,-0.0341,-0.0324,-0.0385,-0.0323,-0.0315,-0.0149,-0.0146,-0.0102,-0.009,-0.0073,-0.0034,-0.0032,0.0093,0.0093,0,0,0,-0.0422,-0.043,-0.0393,-0.0332,-0.0315,-0.032,-0.031,-0.0153,-0.0141,-0.0088,-0.0071,-0.0033,-0.003,0.0093,0.0093,-0.002,0,0,0,-0.0425,-0.0453,-0.0397,-0.0418,-0.0319,-0.0239,-0.0318,-0.0152,-0.0132,-0.0072,-0.0033,-0.0029,0.0093,0.0093,-0.0017,-0.0078,0,0,0,-0.0456,-0.0455,-0.0446,-0.0421,-0.0371,-0.0242,-0.0218,-0.0147,-0.0123,-0.0036,-0.0028,0.0093,0.0093,-0.0014,-0.0072,-0.0039,0,0,0,-0.049,-0.0518,-0.0448,-0.0467,-0.0373,-0.0315,-0.0219,-0.0159,-0.0095,-0.0032,0.0093,0.0093,-0.0013,-0.0068,-0.0037,0.0042,0.0038,0,0,-0.0551,-0.0527,-0.0537,-0.0472,-0.0463,-0.0331,-0.0293,-0.0169,-0.0078,0.0046,0.0049,-0.0018,-0.0071,-0.0038,0.0036,0.0031,0,0,0,-0.0573,-0.0589,-0.0571,-0.0546,-0.0468,-0.0391,-0.0259,-0.0186,-0.0075,-0.0043,0.0012,-0.0018,0.0007,0.006,0.0057,0.0358,0.0093,0.0093,0.0093,-0.0703,-0.066,-0.0685,-0.0622,-0.057,-0.0422,-0.0344,-0.0213,-0.0123,-0.0091,-0.0088,-0.0114,-0.0059,-0.006,0.0248,-0.0055,-0.0055,-0.0056,-0.0056,-0.0823,-0.0846,-0.0777,-0.0789,-0.0678,-0.062,-0.0422,-0.0335,-0.0201,-0.0149,-0.0118,-0.0036,-0.007,0.026,-0.0063,-0.0062,-0.0061,-0.006,-0.006,-0.0923,-0.0932,-0.0927,-0.0931,-0.0884,-0.0743,-0.0664,-0.0493,-0.0317,-0.0288,-0.0148,-0.0145,0.0132,-0.0253,-0.0253,-0.0253,-0.0253,-0.0253,-0.0253,-0.1033,-0.1027,-0.1088,-0.1074,-0.1076,-0.1011,-0.0797,-0.0668,-0.0409,-0.0258,-0.0256,0.0174,-0.0172,-0.018,-0.0256,-0.0255,-0.0255,-0.0255,-0.0255,-0.1163,-0.1155,-0.1259,-0.1289,-0.1287,-0.1253,-0.1038,-0.0699,-0.0513,-0.0363,0.0198,-0.0197,-0.0137,-0.0132,-0.0136,-0.0196,-0.0196,-0.0196,-0.0196,-0.1249,-0.1255,-0.1398,-0.1471,-0.1491,-0.1365,-0.1165,-0.075,-0.0083,0.0283,0.0392,0.0484,0.0468,0.057,0.056,0.0574,0.0695,0.0697,0.0698,-0.1334,-0.1372,-0.149,-0.1554,-0.1585,-0.1467,-0.1243,-0.0716,0.029,0.0764,0.0797,0.0759,0.0923,0.0873,0.1054,0.1016,0.1044,0,0]}],[{"header":{"parameterUnit":"m.s-1","parameterCategory":2,"la1":30.2992,"la2":30.254,"lo1":-89.0895,"lo2":-89.0443,"dy":0.0025,"dx":0.0025,"nx":19,"ny":19,"refTime":"2026-04-08T03:00:00:Z","depth":"2","parameterNumber":2,"parameterNumberName":"U-component_of_CURRENTS"},"data":[0,0,0,-0.2881,-0.2883,-0.2944,-0.2944,-0.2953,-0.2953,0,0,0,0,0,0,0,0,0,0,0,-0.2847,-0.2847,-0.2881,-0.2883,-0.2944,-0.2944,-0.2953,-0.2953,0,0,0,0,0,0,0,0,0,0,0,-0.2847,-0.2847,-0.2848,-0.2884,-0.2944,-0.2944,-0.2953,-0.2921,0,0,0,0,0,0,0,0,0,0,-0.287,-0.2842,-0.2847,-0.2848,-0.2884,-0.2944,-0.2944,-0.292,-0.2923,-0.291,0,-0.2922,0,-0.2949,-0.2953,-0.2953,0,0,0,-0.287,-0.284,-0.2871,-0.2848,-0.2885,-0.2944,-0.2913,-0.2922,-0.2925,-0.2914,-0.2923,-0.2924,-0.2949,-0.2953,-0.2953,-0.3022,-0.3023,0,0,-0.2867,-0.2842,-0.2869,-0.2873,-0.2903,-0.2911,-0.2915,-0.2925,-0.2918,-0.2923,-0.2925,-0.2949,-0.2953,-0.2953,-0.3022,-0.3023,0,0,0,-0.2866,-0.2839,-0.2871,-0.2872,-0.2895,-0.2913,-0.2917,-0.2917,-0.2933,-0.2925,-0.2949,-0.2953,-0.2953,-0.3021,-0.3022,-0.3074,0,0,0,-0.2863,-0.284,-0.287,-0.2853,-0.2895,-0.2915,-0.2909,-0.2931,-0.2934,-0.2949,-0.2953,-0.2953,-0.302,-0.3022,-0.3071,-0.3088,0,0,0,-0.2844,-0.2838,-0.2849,-0.2852,-0.2888,-0.2916,-0.2931,-0.2933,-0.2949,-0.2953,-0.2953,-0.302,-0.3021,-0.3068,-0.3084,-0.3092,0,0,0,-0.281,-0.2835,-0.2848,-0.289,-0.2888,-0.2968,-0.2931,-0.297,-0.298,-0.2953,-0.302,-0.3022,-0.3067,-0.3081,-0.309,-0.2971,-0.2972,0,0,-0.2828,-0.2835,-0.2867,-0.2883,-0.2961,-0.2959,-0.3033,-0.3019,-0.3,-0.3007,-0.301,-0.3072,-0.3083,-0.3091,-0.3071,-0.3069,0,0,0,-0.2866,-0.2881,-0.2911,-0.2957,-0.3016,-0.3062,-0.3068,-0.3073,-0.3083,-0.3017,-0.3093,-0.3099,-0.3101,-0.3026,-0.3025,-0.303,-0.303,-0.303,-0.303,-0.282,-0.2883,-0.2934,-0.3011,-0.3068,-0.3132,-0.3164,-0.3171,-0.3143,-0.3161,-0.3156,-0.322,-0.3142,-0.314,-0.3177,-0.3177,-0.3177,-0.3178,-0.3178,-0.283,-0.2849,-0.2943,-0.3013,-0.3092,-0.3152,-0.3239,-0.3238,-0.3267,-0.3235,-0.3235,-0.3105,-0.3141,-0.3182,-0.3181,-0.3181,-0.318,-0.318,-0.318,-0.277,-0.2787,-0.285,-0.2948,-0.3045,-0.3148,-0.3219,-0.3282,-0.33,-0.3321,-0.3202,-0.3199,-0.3225,-0.3306,-0.3306,-0.3306,-0.3306,-0.3306,-0.3306,-0.2656,-0.2729,-0.2753,-0.2881,-0.2932,-0.3042,-0.3198,-0.3241,-0.3264,-0.3249,-0.3247,-0.3262,-0.3258,-0.3233,-0.3308,-0.3308,-0.3308,-0.3308,-0.3307,-0.2538,-0.2578,-0.2609,-0.2655,-0.2789,-0.2812,-0.3031,-0.311,-0.3178,-0.3159,-0.32,-0.3201,-0.3165,-0.3163,-0.3136,-0.3182,-0.3182,-0.3182,-0.3182,-0.2419,-0.2458,-0.2451,-0.249,-0.2575,-0.2692,-0.2649,-0.269,-0.284,-0.2829,-0.2844,-0.2774,-0.2788,-0.2726,-0.2735,-0.2697,-0.2629,-0.2627,-0.2626,-0.2305,-0.234,-0.2277,-0.236,-0.2457,-0.2503,-0.2351,-0.2199,-0.2307,-0.2599,-0.2689,-0.3156,-0.3094,-0.31,-0.3036,-0.3038,-0.2989,0,0]},{"header":{"parameterUnit":"m.s-1","parameterCategory":2,"la1":30.2992,"la2":30.254,"lo1":-89.0895,"lo2":-89.0443,"dy":0.0025,"dx":0.0025,"nx":19,"ny":19,"refTime":"2026-04-08T03:00:00:Z","depth":"2","parameterNumber":3,"parameterNumberName":"V-component_of_CURRENTS"},"data":[0,0,0,-0.0385,-0.0383,-0.025,-0.0249,-0.0041,-0.004,0,0,0,0,0,0,0,0,0,0,0,-0.0434,-0.0434,-0.0385,-0.0383,-0.025,-0.0249,-0.0042,-0.004,0,0,0,0,0,0,0,0,0,0,0,-0.0435,-0.0434,-0.0434,-0.0383,-0.025,-0.0249,-0.0042,-0.0146,0,0,0,0,0,0,0,0,0,0,-0.0278,-0.0345,-0.0434,-0.0434,-0.0382,-0.0251,-0.0249,-0.0151,-0.014,-0.0098,0,-0.0095,0,-0.007,-0.0027,-0.0026,0,0,0,-0.036,-0.0355,-0.0315,-0.0434,-0.0381,-0.0251,-0.0303,-0.0145,-0.0132,-0.0083,-0.0092,-0.0084,-0.0067,-0.0026,-0.0025,0.01,0.01,0,0,-0.0367,-0.0406,-0.0325,-0.0308,-0.0368,-0.0308,-0.03,-0.0137,-0.0134,-0.0091,-0.0079,-0.0063,-0.0025,-0.0023,0.01,0.01,0,0,0,-0.0404,-0.0411,-0.0375,-0.0316,-0.0299,-0.0305,-0.0295,-0.0141,-0.0129,-0.0077,-0.0061,-0.0024,-0.0021,0.0101,0.01,-0.0011,0,0,0,-0.0407,-0.0434,-0.0379,-0.04,-0.0303,-0.0226,-0.0303,-0.014,-0.0121,-0.0062,-0.0023,-0.0019,0.0101,0.0101,-0.0008,-0.0068,0,0,0,-0.0437,-0.0437,-0.0428,-0.0403,-0.0355,-0.0228,-0.0205,-0.0135,-0.0112,-0.0026,-0.0019,0.0101,0.0101,-0.0005,-0.0063,-0.0034,0,0,0,-0.047,-0.0497,-0.0429,-0.0448,-0.0356,-0.03,-0.0206,-0.0147,-0.0085,-0.0023,0.0101,0.01,-0.0004,-0.0059,-0.0031,0.0039,0.0034,0,0,-0.0529,-0.0505,-0.0516,-0.0452,-0.0444,-0.0315,-0.0278,-0.0157,-0.0067,0.0054,0.0058,-0.0009,-0.0062,-0.0033,0.0034,0.0029,0,0,0,-0.055,-0.0565,-0.0548,-0.0524,-0.0448,-0.0374,-0.0245,-0.0173,-0.0064,-0.0033,0.0021,-0.0009,0.0013,0.0062,0.0058,0.01,0.01,0.01,0.01,-0.0677,-0.0635,-0.0659,-0.0598,-0.0547,-0.0403,-0.0329,-0.0201,-0.0111,-0.008,-0.0078,-0.0106,-0.0056,-0.0058,-0.0044,-0.0045,-0.0045,-0.0046,-0.0046,-0.0794,-0.0816,-0.075,-0.0762,-0.0654,-0.0598,-0.0405,-0.032,-0.019,-0.0137,-0.0109,-0.0033,-0.0069,-0.0054,-0.0052,-0.0051,-0.005,-0.005,-0.0049,-0.0892,-0.0902,-0.0896,-0.0901,-0.0857,-0.072,-0.0646,-0.0479,-0.0306,-0.0278,-0.0147,-0.0144,-0.0165,-0.0245,-0.0245,-0.0245,-0.0246,-0.0246,-0.0246,-0.1,-0.0995,-0.1056,-0.1042,-0.1046,-0.0985,-0.0778,-0.0653,-0.0404,-0.0257,-0.0255,-0.0171,-0.0165,-0.0173,-0.0248,-0.0248,-0.0248,-0.0247,-0.0247,-0.1128,-0.1121,-0.1224,-0.1255,-0.1255,-0.1222,-0.1017,-0.0692,-0.0513,-0.0369,-0.0202,-0.0202,-0.0144,-0.0138,-0.0143,-0.0207,-0.0207,-0.0207,-0.0207,-0.1214,-0.1219,-0.1362,-0.1435,-0.1456,-0.1332,-0.1145,-0.0772,-0.0395,-0.0205,-0.0206,-0.017,-0.017,-0.0112,-0.0106,-0.0109,-0.0164,-0.0165,-0.0165,-0.1298,-0.1336,-0.1452,-0.1516,-0.1548,-0.1431,-0.1222,-0.0776,-0.0275,-0.0169,-0.0257,-0.0192,-0.0138,-0.014,-0.0043,-0.0038,-0.0039,0,0]}],[{"header":{"parameterUnit":"m.s-1","parameterCategory":2,"la1":30.2992,"la2":30.254,"lo1":-89.0895,"lo2":-89.0443,"dy":0.0025,"dx":0.0025,"nx":19,"ny":19,"refTime":"2026-04-08T03:00:00:Z","depth":"4","parameterNumber":2,"parameterNumberName":"U-component_of_CURRENTS"},"data":[0,0,0,-0.1933,-0.1937,-0.213,-0.2131,-0.224,-0.2241,0,0,0,0,0,0,0,0,0,0,0,-0.1868,-0.1869,-0.1932,-0.1937,-0.213,-0.2131,-0.224,-0.2241,0,0,0,0,0,0,0,0,0,0,0,-0.1867,-0.1869,-0.1871,-0.1938,-0.213,-0.2131,-0.224,-0.2128,0,0,0,0,0,0,0,0,0,0,-0.1958,-0.1919,-0.1869,-0.1871,-0.1939,-0.2129,-0.2131,-0.2124,-0.2135,-0.2114,0,-0.2157,0,-0.2199,-0.2245,-0.2245,0,0,0,-0.1935,-0.191,-0.1962,-0.1871,-0.1941,-0.2129,-0.2042,-0.2131,-0.2143,-0.2127,-0.2159,-0.2164,-0.2201,-0.2245,-0.2246,-0.2361,-0.2361,0,0,-0.1925,-0.1899,-0.1954,-0.197,-0.2005,-0.2036,-0.2048,-0.214,-0.2155,-0.2159,-0.2167,-0.2202,-0.2246,-0.2246,-0.236,-0.2361,0,0,0,-0.1895,-0.1891,-0.1944,-0.1964,-0.201,-0.2042,-0.2056,-0.2151,-0.2169,-0.2169,-0.2204,-0.2246,-0.2247,-0.2359,-0.236,-0.2418,0,0,0,-0.1889,-0.1875,-0.1939,-0.1925,-0.2009,-0.2102,-0.2064,-0.2163,-0.2175,-0.2203,-0.2246,-0.2248,-0.2358,-0.236,-0.2414,-0.2427,0,0,0,-0.1857,-0.1871,-0.1898,-0.1923,-0.2008,-0.2102,-0.2127,-0.2168,-0.2196,-0.2245,-0.2248,-0.2358,-0.2359,-0.2411,-0.2423,-0.2433,0,0,0,-0.1815,-0.1861,-0.1898,-0.1968,-0.2006,-0.2131,-0.2127,-0.2223,-0.2273,-0.2246,-0.2358,-0.236,-0.241,-0.242,-0.243,-0.2116,0,0,0,-0.1843,-0.1864,-0.1907,-0.1944,-0.2056,-0.2103,-0.222,-0.2281,-0.2288,-0.2316,-0.232,-0.2415,-0.2422,-0.2432,-0.2228,0,0,0,0,-0.1896,-0.1927,-0.1969,-0.2049,-0.2139,-0.2231,-0.2303,-0.2332,-0.2399,-0.2328,-0.2437,-0.244,-0.2443,-0.2255,-0.2369,-0.2369,-0.2369,-0.2368,-0.2368,-0.1869,-0.1939,-0.2016,-0.2115,-0.2203,-0.2327,-0.2396,-0.2447,-0.2449,-0.2493,-0.2503,-0.2571,-0.2378,-0.2527,-0.2528,-0.2528,-0.2528,-0.2528,-0.2529,-0.1886,-0.1916,-0.2039,-0.2143,-0.2258,-0.2365,-0.2488,-0.2521,-0.2591,-0.2578,-0.2579,-0.235,-0.2535,-0.2534,-0.2533,-0.2532,-0.2531,-0.2531,-0.2531,-0.1826,-0.1848,-0.1952,-0.2097,-0.2245,-0.239,-0.2474,-0.2582,-0.2631,-0.2662,-0.2438,-0.2603,-0.2577,-0.2662,-0.2662,-0.2663,-0.2663,-0.2663,-0.2663,-0.1696,-0.1799,-0.187,-0.2047,-0.2138,-0.228,-0.2473,-0.2509,-0.2603,-0.2464,-0.2675,-0.2616,-0.2611,-0.2584,-0.2665,-0.2665,-0.2664,-0.2664,-0.2664,-0.1574,-0.1645,-0.1718,-0.181,-0.1997,-0.2075,-0.2315,-0.2333,-0.2341,-0.2277,-0.2344,-0.2359,-0.23,-0.2303,-0.2263,-0.2251,-0.2247,-0.2243,0,-0.146,-0.151,-0.1571,-0.165,-0.1724,-0.1935,-0.1893,-0.1991,-0.2077,-0.2003,-0.2323,-0.2397,-0.2406,-0.2338,-0.2335,-0.2286,0,0,0,-0.136,-0.1403,-0.1386,-0.1507,-0.1584,-0.1682,-0.1865,-0.1816,-0.2081,-0.2012,-0.2148,-0.2173,-0.248,-0.2671,-0.2616,-0.2611,-0.2564,0,0]},{"header":{"parameterUnit":"m.s-1","parameterCategory":2,"la1":30.2992,"la2":30.254,"lo1":-89.0895,"lo2":-89.0443,"dy":0.0025,"dx":0.0025,"nx":19,"ny":19,"refTime":"2026-04-08T03:00:00:Z","depth":"4","parameterNumber":3,"parameterNumberName":"V-component_of_CURRENTS"},"data":[0,0,0,-0.0279,-0.0278,-0.0192,-0.0192,-0.0031,-0.003,0,0,0,0,0,0,0,0,0,0,0,-0.031,-0.031,-0.0279,-0.0278,-0.0192,-0.0192,-0.0031,-0.003,0,0,0,0,0,0,0,0,0,0,0,-0.031,-0.031,-0.0309,-0.0277,-0.0193,-0.0192,-0.0032,-0.0104,0,0,0,0,0,0,0,0,0,0,-0.0191,-0.0241,-0.031,-0.0309,-0.0277,-0.0193,-0.0192,-0.0108,-0.0099,-0.0061,0,-0.0064,0,-0.005,-0.002,-0.0019,0,0,0,-0.0257,-0.0248,-0.0222,-0.0309,-0.0277,-0.0193,-0.0225,-0.0103,-0.0094,-0.005,-0.0061,-0.0056,-0.0047,-0.0019,-0.0018,0.0084,0.0084,0,0,-0.0262,-0.0289,-0.0229,-0.0217,-0.0273,-0.0228,-0.0223,-0.0098,-0.0096,-0.0061,-0.0052,-0.0044,-0.0018,-0.0016,0.0084,0.0084,0,0,0,-0.0289,-0.0293,-0.0271,-0.0223,-0.0216,-0.0226,-0.022,-0.0102,-0.0094,-0.005,-0.0043,-0.0017,-0.0015,0.0084,0.0084,-0.0016,0,0,0,-0.0291,-0.031,-0.0273,-0.0288,-0.0219,-0.0167,-0.0227,-0.0103,-0.0089,-0.0043,-0.0017,-0.0013,0.0084,0.0084,-0.0013,-0.0067,0,0,0,-0.031,-0.0312,-0.0308,-0.029,-0.0262,-0.0169,-0.0153,-0.0099,-0.0084,-0.0019,-0.0013,0.0084,0.0084,-0.0011,-0.0062,-0.0042,0,0,0,-0.0332,-0.0353,-0.0309,-0.0327,-0.0263,-0.0228,-0.0154,-0.0113,-0.0066,-0.0016,0.0084,0.0084,-0.001,-0.0059,-0.004,-0.0081,0,0,0,-0.0374,-0.0359,-0.0369,-0.0328,-0.033,-0.0237,-0.0217,-0.0124,-0.0048,0.0051,0.0053,-0.0014,-0.0062,-0.0041,-0.008,0,0,0,0,-0.0392,-0.0406,-0.0396,-0.0387,-0.0337,-0.0293,-0.0195,-0.0138,-0.0052,-0.0023,0.0014,-0.0012,0.0004,-0.0012,0.0084,0.0084,0.0084,0.0084,0.0084,-0.048,-0.0457,-0.0483,-0.0449,-0.0418,-0.0321,-0.027,-0.0169,-0.0093,-0.0067,-0.0073,-0.0101,-0.0122,-0.0041,-0.0042,-0.0042,-0.0043,-0.0043,-0.0043,-0.0565,-0.0584,-0.0555,-0.0578,-0.0514,-0.0483,-0.034,-0.0274,-0.0173,-0.0123,-0.0102,-0.0093,-0.0052,-0.0051,-0.0049,-0.0048,-0.0047,-0.0047,-0.0046,-0.0628,-0.0637,-0.0654,-0.0685,-0.0677,-0.0589,-0.0548,-0.042,-0.0274,-0.0257,-0.0212,-0.0145,-0.0157,-0.0229,-0.023,-0.023,-0.023,-0.023,-0.023,-0.0684,-0.07,-0.0769,-0.0792,-0.082,-0.0798,-0.0663,-0.0575,-0.0412,-0.0326,-0.0276,-0.0162,-0.0156,-0.0165,-0.0233,-0.0232,-0.0232,-0.0232,-0.0231,-0.0752,-0.0768,-0.0871,-0.0925,-0.0978,-0.0951,-0.0841,-0.0635,-0.0537,-0.0426,-0.0328,-0.0323,-0.0278,-0.0269,-0.028,-0.0385,-0.0385,-0.0386,0,-0.0796,-0.0811,-0.0954,-0.1048,-0.1091,-0.103,-0.091,-0.0771,-0.0559,-0.0557,-0.0536,-0.0435,-0.0427,-0.0386,-0.0378,-0.0398,0,0,0,-0.0841,-0.0882,-0.0986,-0.108,-0.1136,-0.0974,-0.0868,-0.0795,-0.0598,-0.0499,-0.0406,-0.0401,-0.0364,-0.024,-0.0157,-0.015,-0.0159,0,0]}]]